Location: Bonnerveen
(53.0137°N, 6.8329°E)
Time: 22:52:49
(UTC+00:00)

Daily predictions for brighter satellites

Satellite Brightness Start Highest point End
(mag) Time Altitude Azimuth Time Altitude Azimuth Time Altitude Azimuth
Cosmos 1802 Rocket 4.3 20:40:17 10° N 20:46:43 63° ENE 20:53:03 10° SSE
Cosmos 1666 Rocket 4.2 20:44:08 10° NNW 20:48:31 56° W 20:52:51 10° S
Meteor 2-10 Rocket 4.2 20:42:53 10° NNW 20:48:34 62° W 20:54:03 10° S
USA 305 3.3 20:48:22 10° SSW 20:51:40 27° SSE 20:54:36 10° E
Cosmos 1953 3.6 20:49:16 10° N 20:52:29 26° ENE 20:55:42 10° SE
Okean-O 4.1 20:53:16 10° SSW 20:57:14 33° W 21:01:14 10° NNW
Cosmos 1633 Rocket 3.7 20:54:26 10° NNW 20:58:38 52° W 21:02:49 10° S
Meteor 1-22 Rocket 4.2 20:53:32 10° NNW 20:58:53 88° W 21:04:22 10° S
Lacrosse 4 Rocket 1.7 20:55:30 10° NW 20:59:39 61° WSW 21:03:50 10° SSE
NOSS 3-4 (A) 3.2 20:57:41 10° SW 21:03:07 83° SE 21:09:12 10° NE
NOSS 3-4 (C) 3.2 20:57:48 10° SW 21:03:12 82° SE 21:09:18 10° NE
Cosmos 2016 Rocket 4.2 20:59:34 10° N 21:05:55 71° ENE 21:12:15 10° SSE
Cosmos 1818 3.6 21:00:57 10° SSW 21:06:19 61° SE 21:11:42 10° NE
Cosmos 1455 3.4 21:07:24 10° NW 21:09:42 24° W 21:11:58 10° SSW
Cosmos 1328 Rocket 4.3 21:09:44 10° SSW 21:14:02 54° WNW 21:18:23 10° N
USA 59 Rocket 1.8 21:12:48 10° NNW 21:15:13 20° NNE 21:17:58 10° ENE
Ariane Rocket 3.4 21:10:49 10° S 21:15:51 64° WSW 21:20:56 10° NNW
Cosmos 614 Rocket 4.2 21:10:44 10° SSW 21:15:54 77° WNW 21:21:03 10° NNE
Cosmos 2297 Rocket 2.7 21:10:21 10° SW 21:15:59 65° NW 21:21:39 10° NNE
ATLAS 3B R/B 4.5 21:11:10 10° WNW 21:18:24 38° N 21:25:41 10° ENE
Cosmos 1470 Rocket 4.3 21:14:59 10° NNW 21:19:11 50° W 21:23:22 10° S
GP-B 3.5 21:15:36 10° N 21:19:53 50° E 21:23:59 11° SSE
SPOT 3 Rocket 4.1 21:15:36 10° S 21:20:37 55° W 21:25:43 10° NNW
Cosmos 1758 4.3 21:18:21 10° NNW 21:21:53 39° W 21:25:21 10° SSW
Cosmos 2084 Rocket 4.0 21:21:34 10° WNW 21:25:33 43° SW 21:29:07 12° SSE
Meteor 1-12 Rocket 4.4 21:19:51 10° NNW 21:25:45 81° ENE 21:31:34 11° SSE
ATLAS CENTAUR R/B 2.8 21:24:39 10° WNW 21:27:48 24° WSW 21:30:53 10° S
Cosmos 1933 Rocket 3.7 21:25:57 10° NNW 21:30:22 77° W 21:34:40 10° S
SL-16 R/B 2.5 21:30:52 10° NW 21:36:27 61° WSW 21:41:38 12° SSE
NOSS 3 (A) 4.5 21:34:58 10° NW 21:37:19 55° SW 21:39:33 15° SSE
Terra 4.2 21:36:52 10° SW 21:40:01 18° W 21:43:11 10° NW
Cosmos 2344 4.0 21:32:48 10° NW 21:40:33 80° NE 21:50:51 10° SE
Cosmos 1515 Rocket 4.0 21:36:25 10° SSW 21:40:48 64° WNW 21:45:14 10° N
DELTA 2 DEB (DPAF) 4.1 21:37:16 10° NNE 21:41:07 50° ESE 21:44:30 13° S
ALOS 2 4.3 21:37:36 10° ESE 21:41:09 24° ENE 21:44:43 10° N
Cosmos 1733 Rocket 3.8 21:37:15 10° N 21:41:26 41° ENE 21:45:01 13° SE
Meteor 1-23 Rocket 4.2 21:36:32 10° S 21:42:06 86° ESE 21:47:47 10° NNE
Cosmos 2233 Rocket 4.1 21:37:17 10° N 21:43:39 89° WSW 21:49:37 12° S
Cosmos 2227 Rocket 2.4 21:38:50 10° SW 21:44:29 77° WNW 21:50:12 10° NNE
COSMOS 2455 4.4 21:39:49 10° NW 21:44:38 25° WSW 21:49:24 10° SSW
Cosmos 1869 Rocket 3.6 21:40:16 10° NNW 21:44:41 82° W 21:48:34 13° S
RESURS DK-1 2.2 21:41:29 10° SSW 21:45:30 85° ESE 21:49:32 10° NE
Meteor 1-16 Rocket 4.3 21:41:06 10° NNW 21:46:54 87° WSW 21:52:16 13° S
Meteor 1-21 4.3 21:42:36 10° S 21:48:17 78° E 21:54:05 10° NNE
Cosmos 2263 Rocket 2.2 21:43:25 10° SSW 21:49:02 68° ESE 21:54:43 10° NE
Okean 2 3.7 21:50:02 15° SSE 21:53:01 46° E 21:56:46 10° NNE
Okean 3 3.8 21:50:57 15° SSE 21:54:09 48° E 21:58:06 10° NNE
Aureole 3 Rocket 3.8 21:52:01 10° N 21:54:45 28° ENE 21:57:14 13° SE
Cosmos 1943 3.3 21:52:22 10° NNW 21:58:07 82° ENE 22:03:04 14° SE
ASTEX 1 3.9 21:53:43 10° NNE 21:58:32 47° E 22:02:22 15° SSE
Cosmos 1437 Rocket 3.6 21:56:43 10° SW 22:00:06 43° WNW 22:03:34 10° N
SeaSat 1 3.8 21:59:16 10° ESE 22:03:39 34° NE 22:08:03 10° NNW
Geosat 4.0 22:02:34 10° NNE 22:07:38 88° SE 22:12:38 10° SSW
Cosmos 1763 Rocket 3.7 22:02:58 10° NNW 22:08:08 67° ENE 22:12:24 15° SE
Cosmos 2219 3.2 22:04:10 10° SSW 22:09:54 82° ESE 22:15:42 10° NNE
COBE Rocket 4.1 22:04:51 10° N 22:09:56 75° WNW 22:14:53 10° SSW
MetOp-A 3.8 22:10:28 16° SSE 22:14:15 79° ENE 22:18:45 10° NNW
Cosmos 1862 Rocket 4.0 22:11:29 17° SSE 22:14:40 49° E 22:18:56 10° NNE
Cosmos 1603 4.0 22:10:01 10° NNW 22:15:37 65° NE 22:20:41 13° SE
USA 290 2.1 22:14:12 12° SSW 22:17:07 87° WNW 22:20:21 10° NNE
Cosmos 1271 Rocket 4.4 22:16:29 13° SE 22:18:17 18° E 22:20:52 10° NE
Cosmos 2082 3.7 22:13:40 10° SSW 22:19:22 75° ESE 22:25:07 10° NE
Cosmos 2292 Rocket 2.5 22:18:12 21° S 22:19:59 68° E 22:22:54 10° NNE
USA 305 2.0 22:16:26 10° WSW 22:20:06 81° SSE 22:23:00 10° ENE
SWAS 4.3 22:17:50 10° NW 22:21:55 74° WSW 22:24:44 19° SSE
Okean 1-7 3.7 22:19:41 18° SSE 22:22:19 39° E 22:26:11 10° NNE
ARIANE 5 R/B 2.6 22:20:49 18° SSE 22:24:08 89° WSW 22:28:39 10° NNW
SL-4 R/B 2.8 22:22:27 10° SSW 22:26:03 29° SSE 22:29:33 10° E
Cosmos 1953 3.5 22:24:26 10° NNW 22:27:47 31° W 22:30:44 12° SSW
Cosmos 1140 Rocket 3.4 22:26:49 10° SSW 22:31:58 88° ESE 22:37:07 10° NNE
NOSS 2-1 (C) 3.9 22:30:48 10° NW 22:33:58 48° NE 22:37:57 10° ESE
Spot 4 3.9 22:30:33 18° SSE 22:34:10 84° ENE 22:39:01 10° NNW
NOSS 3-1 (C) 4.1 22:29:07 10° NW 22:36:01 69° SW 22:43:28 14° SSE
Cosmos 1703 2.9 22:34:57 19° SSW 22:37:20 85° WNW 22:40:51 10° N
NOSS 2-1 (E) 4.0 22:34:21 10° NW 22:37:33 47° NE 22:41:34 10° ESE
Cosmos 1072 Rocket 4.5 22:34:19 10° N 22:40:31 84° E 22:45:16 18° SSE
SJ 16-02 3.4 22:38:58 11° ESE 22:40:59 14° E 22:43:16 10° ENE
Cosmos 1892 2.0 22:43:00 24° SSW 22:44:41 86° W 22:47:43 10° N
CZ-4C R/B 3.6 22:46:58 10° N 22:50:08 47° WNW 22:52:42 14° SW
DNEPR-1 R/B 4.4 22:47:11 10° WSW 22:52:47 64° NW 22:57:29 10° NE
USA 307 3.9 22:54:11 20° SE 22:54:30 21° SE 22:57:29 10° E
Cosmos 407 Rocket 3.4 22:50:54 15° SSW 22:55:08 80° ESE 23:00:17 10° NNE
Cosmos 2228 Rocket 3.2 22:54:32 17° SSW 22:57:56 73° WNW 23:02:24 10° N
Cosmos 1844 Rocket 3.0 22:54:47 18° S 22:58:51 53° ESE 23:04:22 10° NE
Cosmos 1782 Rocket 4.3 22:56:26 10° N 23:00:41 45° ENE 23:03:54 16° SE
USA 234 4.4 22:55:57 10° ENE 23:00:57 23° SE 23:03:50 17° SSE
OPS 6432 4.2 22:58:16 10° NW 23:01:40 79° SW 23:03:35 22° SE
Cosmos 1703 Rocket 4.0 22:59:24 21° SSE 23:02:01 48° E 23:06:11 10° NNE
Cosmos 2251 Rocket 3.7 22:59:04 18° S 23:02:58 63° ESE 23:08:16 10° NNE
Cosmos 1844 4.0 22:59:50 19° S 23:03:40 51° ESE 23:09:02 10° NE
USA 59 Rocket -0.3 23:01:09 10° NW 23:04:31 85° NE 23:08:26 13° SE
Landsat 5 3.6 23:02:35 10° NNE 23:06:54 78° WNW 23:09:56 18° SSW
Cosmos 1707 Rocket 4.1 23:05:01 15° SSW 23:08:28 52° WNW 23:12:41 10° N
ATLAS 3B R/B 3.7 23:02:54 10° NW 23:10:43 58° NNE 23:18:21 10° ESE
Cosmos 1954 Rocket 4.4 23:07:46 20° S 23:11:07 47° ESE 23:16:05 10° NE
Cosmos 540 Rocket 3.8 23:06:15 10° NNW 23:11:13 51° WSW 23:14:32 20° S
Cosmos 1190 Rocket 4.1 23:12:31 19° S 23:16:14 63° ESE 23:21:27 10° NNE
Tsikada Rocket 4.4 23:12:12 18° SSE 23:16:42 53° E 23:22:48 10° NNE
ALOS 2 3.0 23:14:27 21° S 23:17:13 51° W 23:21:32 10° NNW
Meteor 1-24 Rocket 4.2 23:13:40 19° SSE 23:17:56 56° E 23:23:42 10° NNE
SL-16 R/B 4.4 23:17:30 10° WNW 23:19:24 12° W 23:21:17 10° WSW
Cosmos 1606 3.7 23:18:44 10° N 23:21:28 28° ENE 23:23:21 16° SE
Cosmos 468 Rocket 4.2 23:17:00 10° NNW 23:22:05 58° WSW 23:25:26 21° S
Cosmos 841 Rocket 3.6 23:18:05 10° NNW 23:23:23 81° ENE 23:27:33 16° SSE
NOSS 3-1 (A) 4.0 23:17:25 10° NW 23:24:22 69° SW 23:32:25 12° SSE
Spot 1 4.4 23:20:05 10° NNE 23:25:01 83° ESE 23:28:37 20° SSW
Cosmos 1464 Rocket 4.4 23:20:15 10° NNW 23:26:23 54° W 23:31:00 17° SSW
ATLAS 2AS CENTAUR R/B 3.4 23:25:05 18° S 23:29:45 40° ESE 23:36:06 10° NE
Meteor 2-5 Rocket 4.0 23:27:46 19° S 23:32:02 66° E 23:37:56 10° NNE
Cosmos 2034 Rocket 4.1 23:27:11 10° NNW 23:33:21 68° W 23:37:59 19° S
Cosmos 2263 Rocket 3.9 23:28:19 10° WSW 23:33:25 33° NW 23:38:32 10° NNE
Meteor 2-17 Rocket 4.5 23:30:04 19° S 23:34:29 73° E 23:40:32 10° NNE
H-2A R/B 3.7 23:31:18 10° SE 23:34:30 29° ENE 23:37:41 10° N
Cosmos 1833 Rocket 3.3 23:32:03 10° NNW 23:37:37 57° NE 23:43:08 10° SE
Cosmos 1908 Rocket 4.2 23:35:11 10° NNW 23:39:21 46° W 23:42:02 20° SSW
SeaSat 1 2.6 23:37:33 20° S 23:40:52 57° WSW 23:45:43 10° NW
Aureole 3 Rocket 4.5 23:39:21 10° NW 23:41:36 18° W 23:43:25 13° SW
USA 305 2.2 23:45:33 10° W 23:48:46 60° N 23:51:04 10° E
Cosmos 1271 Rocket 3.4 23:50:19 18° SW 23:52:43 42° WNW 23:56:11 10° N
CZ-2C R/B 4.3 23:48:44 10° NNE 23:53:41 34° E 23:57:35 14° SSE
NOSS 2-1 (D) 3.8 23:51:31 10° WNW 23:54:50 41° SW 23:57:18 21° S
